Theta_e
331 332 332 329 327 329 328 324 320 318 318 323 326 323 322 324 324 324 327 330 331 330 328 329 331 332 331 331 330 329 330 330 331 329 325 324 324 323 322 320 317 315 313 310 309 313 315 314 316 317 317 318 318 318 318 318 318 318 317 316 315 314 313 313 312 311 311 311 311 311 311 311 311 311 311 311 311 310 310 310 310 310 310 309 309
332 332 331 329 327 329 327 322 320 318 317 322 327 326 325 325 325 326 328 331 332 331 330 329 330 331 332 331 331 331 330 330 330 329 327 325 323 322 320 317 314 313 311 308 311 318 320 319 319 320 321 322 322 322 321 321 321 321 320 320 319 318 318 317 317 316 315 314 313 312 312 311 311 311 311 311 311 311 311 311 311 310 310 309 309
332 331 331 330 328 330 328 323 323 322 320 323 327 327 327 327 327 328 329 329 330 330 331 331 329 329 331 332 331 331 330 330 330 328 328 327 324 322 318 314 312 311 309 309 315 320 322 322 322 322 323 323 324 324 323 323 322 322 322 322 322 321 321 321 320 319 318 316 314 313 312 312 311 311 311 311 311 311 311 312 312 311 311 310 310
331 331 331 330 329 331 330 326 326 327 325 325 325 325 326 329 329 330 330 328 329 330 330 331 330 328 329 330 331 330 329 329 329 328 328 327 325 321 316 314 313 313 311 312 316 321 323 325 326 326 326 326 326 326 325 324 323 323 323 322 323 323 323 323 323 322 321 318 316 314 312 312 311 311 311 311 311 311 312 313 313 314 314 313 313
330 331 330 329 330 331 331 328 328 328 329 329 327 328 328 330 330 330 330 329 330 331 330 330 331 329 328 328 330 329 328 328 328 328 328 327 324 320 316 314 314 314 314 316 319 322 325 326 327 327 327 327 328 328 327 327 325 324 324 324 323 323 323 324 324 323 322 320 317 314 313 312 311 311 312 312 312 312 312 313 314 315 315 316 317
329 331 330 330 330 331 331 330 330 328 330 330 330 330 330 330 330 330 331 331 331 331 330 330 331 330 328 329 329 329 328 328 329 329 328 327 324 320 317 316 317 317 317 320 323 325 326 327 327 327 326 326 327 328 328 328 327 325 324 325 325 324 324 324 323 323 323 321 318 315 313 313 312 312 312 312 312 312 312 313 313 314 314 315 316
330 331 331 330 331 330 330 331 330 328 328 330 331 331 330 330 331 331 331 331 331 330 330 330 330 330 329 329 329 329 328 329 330 330 328 327 325 322 320 320 320 322 322 324 326 326 326 325 325 324 324 325 326 326 327 327 328 326 325 325 325 325 325 324 324 323 323 322 320 317 315 315 315 315 315 315 314 314 314 314 315 315 316 316 315
331 331 330 330 331 331 330 330 328 327 328 330 331 331 330 330 331 332 331 331 330 330 330 330 330 330 330 329 329 329 328 329 330 329 328 328 327 324 323 323 324 325 325 325 325 325 324 323 323 322 323 324 325 326 326 326 327 327 326 325 325 324 325 325 324 324 324 323 322 320 319 319 320 320 320 320 319 319 318 318 318 319 320 319 318
331 331 330 331 331 330 330 328 326 326 328 329 330 331 331 330 331 331 330 330 330 330 330 330 329 329 329 329 329 329 328 329 329 329 328 328 327 326 325 325 326 326 325 325 324 323 323 322 322 321 320 321 322 324 325 326 326 326 326 327 326 326 325 326 325 325 324 324 323 322 322 323 324 324 324 323 323 323 322 322 322 322 323 322 322
331 332 332 332 331 330 330 328 324 325 327 328 328 329 330 330 331 330 329 329 329 330 330 330 330 329 329 329 329 329 328 328 329 328 328 328 328 326 326 326 326 326 326 325 323 323 323 322 320 320 318 318 320 323 324 325 326 326 326 326 327 327 326 326 326 326 325 325 324 323 323 324 324 324 325 324 323 324 324 324 324 323 323 323 323
331 332 332 331 330 328 328 326 325 326 327 327 328 326 327 330 331 330 329 330 330 330 330 330 329 329 329 329 328 329 328 328 328 328 328 328 328 327 327 327 326 326 325 324 323 324 322 320 319 318 318 318 320 323 324 325 326 326 326 326 326 326 326 326 327 326 325 325 325 324 324 324 324 325 326 325 323 324 324 324 324 323 323 323 322
331 332 331 330 328 326 326 325 325 327 326 327 328 327 327 330 331 331 330 330 330 330 330 330 329 329 329 329 329 328 328 327 328 328 328 329 328 327 327 326 325 325 325 324 324 324 323 321 320 318 319 319 320 322 323 325 325 325 325 325 325 325 325 326 326 326 326 326 325 325 325 324 324 324 325 325 324 324 324 323 324 323 322 320 320
331 331 330 329 328 326 326 326 326 327 326 326 327 328 329 331 331 331 331 329 329 330 330 330 329 329 329 329 329 329 328 328 328 329 328 328 328 327 326 325 325 325 325 324 325 325 324 324 322 320 319 319 320 321 322 324 324 325 325 324 323 323 324 325 325 325 325 325 325 325 325 324 325 325 324 324 323 322 322 322 322 321 319 319 320
330 327 327 328 327 326 327 328 327 327 326 326 327 328 330 331 331 330 330 330 330 329 329 329 329 329 329 329 329 329 329 329 329 328 327 327 327 326 326 326 326 325 325 325 326 326 325 324 322 319 318 317 318 320 322 322 322 323 323 322 321 322 324 325 325 324 325 325 325 325 325 324 324 323 321 319 317 316 316 316 316 317 318 319 320
329 325 325 327 327 326 327 328 327 326 326 325 327 328 329 330 330 329 330 331 330 329 329 329 329 329 329 328 329 329 329 329 328 328 327 327 326 326 326 326 326 326 326 326 326 326 325 323 321 318 316 316 317 319 321 321 321 322 321 321 321 321 322 324 324 324 324 325 324 323 322 320 319 317 315 312 309 308 308 307 310 315 318 320 321
329 326 325 326 326 325 326 328 327 326 326 326 327 329 329 329 330 328 328 329 329 329 329 329 329 329 329 328 328 328 328 329 328 328 327 327 326 327 327 327 326 326 326 326 326 325 324 323 322 319 318 316 316 318 320 320 320 319 318 317 317 317 319 321 322 322 321 320 320 318 316 314 312 310 308 307 306 306 305 305 309 315 318 319 320
329 326 325 326 326 326 327 327 327 326 325 326 328 328 328 329 330 329 328 328 329 329 330 330 330 329 328 327 328 327 327 328 328 328 327 327 327 327 327 326 326 326 326 325 324 324 323 323 322 322 320 318 317 317 317 316 316 315 313 312 310 310 312 314 315 314 312 312 312 311 309 308 307 306 305 305 305 304 304 304 307 312 314 315 315
328 326 325 326 327 326 327 327 327 326 325 325 328 327 327 328 329 329 328 327 328 329 329 330 330 329 328 327 327 326 326 327 328 328 328 328 328 327 326 326 326 326 326 324 323 323 322 321 322 322 321 320 318 316 313 312 313 311 309 307 306 306 306 307 307 307 306 307 306 306 306 306 305 305 304 304 303 302 302 303 303 305 306 307 307
327 326 326 327 327 327 327 327 327 325 323 325 327 327 328 329 329 329 328 328 328 328 328 328 329 329 328 327 327 326 325 326 327 327 327 328 327 327 326 325 325 325 324 323 323 322 320 320 321 321 322 320 316 312 309 308 309 308 306 306 306 306 306 306 306 306 306 306 306 306 305 305 304 303 302 302 302 302 302 302 302 302 302 302 302
327 326 327 327 327 326 326 326 326 324 322 324 326 328 329 329 329 328 329 329 328 327 327 328 328 328 328 328 327 326 326 325 325 326 326 327 327 327 326 325 324 324 323 323 322 320 318 319 319 319 319 318 312 308 306 306 306 306 306 306 307 306 306 306 306 306 306 306 305 305 304 303 302 302 302 302 302 302 302 301 301 301 301 301 301
327 326 326 327 326 326 325 324 323 322 322 323 325 328 329 329 329 328 328 329 329 328 328 328 327 327 328 328 327 326 326 325 325 326 325 326 327 327 326 325 323 323 323 323 320 319 318 319 318 316 315 313 308 306 306 305 305 306 307 307 306 306 306 306 306 306 305 304 303 302 302 302 302 302 302 302 302 301 301 301 301 301 301 301 301
326 326 326 326 326 326 326 325 324 323 324 325 326 328 328 328 328 327 327 328 329 329 329 328 326 327 328 327 326 327 326 325 326 326 325 325 326 325 325 324 323 323 324 323 320 319 320 319 318 317 315 312 308 305 305 305 306 307 307 307 306 306 307 306 306 304 303 303 302 302 302 302 302 302 302 301 301 301 301 301 301 301 301 301 301
326 326 326 327 327 327 328 328 326 326 326 327 327 328 328 328 328 327 327 328 329 329 329 328 327 327 327 327 327 326 326 325 325 326 326 325 325 324 323 323 323 323 323 322 319 319 320 319 318 317 315 312 308 305 305 306 307 307 307 307 307 307 307 306 304 303 302 302 302 302 302 302 302 302 302 302 302 302 302 301 301 301 301 301 301
325 326 327 328 328 327 328 328 327 327 327 327 328 328 328 328 328 328 327 328 329 329 328 327 327 327 327 326 327 326 326 325 325 326 326 325 324 323 322 323 323 322 321 320 319 319 319 318 318 316 314 312 307 305 306 306 307 307 307 307 307 307 306 304 303 302 302 302 302 302 302 302 302 302 302 302 302 302 302 302 302 302 302 301 301
325 326 328 329 328 328 328 327 327 327 327 327 328 327 327 328 329 329 328 327 328 328 327 326 326 327 327 327 327 326 327 326 325 326 326 325 325 323 322 322 322 321 319 318 318 319 320 319 317 315 314 312 308 306 307 307 307 307 306 307 307 306 304 303 302 302 302 303 303 303 303 303 303 303 303 303 303 303 302 302 302 301 302 302 302
326 327 328 329 328 328 327 327 327 327 327 327 327 327 328 328 328 328 328 327 327 328 327 326 326 327 327 327 326 326 327 326 326 326 326 325 325 323 322 322 321 320 318 317 318 318 320 319 317 314 313 312 309 306 307 308 308 307 307 307 306 304 303 302 302 303 303 304 304 304 304 304 304 304 304 304 304 304 303 303 302 302 302 302 302
327 328 329 329 328 327 327 326 327 326 326 326 327 327 328 328 327 327 328 328 327 327 327 327 326 326 327 327 326 326 326 327 326 326 326 326 325 324 322 321 320 319 317 317 317 317 318 317 316 314 313 312 309 307 307 308 307 307 307 307 306 304 303 303 303 303 304 305 305 305 305 305 305 305 306 306 305 305 305 304 304 303 303 302 302
329 330 331 330 328 327 326 326 326 326 326 327 327 327 327 326 326 327 328 327 327 327 326 326 327 327 327 327 326 326 325 326 327 326 326 326 325 324 323 321 320 318 317 316 316 316 316 315 314 314 313 312 310 307 308 308 307 307 308 307 305 304 303 303 303 304 305 306 306 306 306 306 306 306 306 306 306 306 306 306 306 305 305 304 304
329 329 330 330 329 327 326 326 326 325 326 326 326 326 325 326 326 326 327 326 327 327 326 325 326 327 328 327 327 326 324 325 327 326 326 326 325 325 323 322 320 318 316 316 315 315 315 314 313 313 312 311 310 307 307 308 308 308 308 307 305 304 304 303 303 304 306 306 306 306 306 306 307 307 307 308 308 308 308 309 309 309 309 308 308
327 327 328 329 328 326 325 325 325 325 325 325 325 325 325 325 326 326 326 326 326 326 325 325 325 325 327 327 327 326 323 323 326 326 326 326 326 325 322 321 319 316 314 314 315 316 315 314 313 312 311 310 309 309 308 308 308 308 308 308 306 305 304 304 304 305 306 307 307 307 307 307 307 308 309 310 310 310 311 311 312 312 312 312 312
327 326 326 326 325 324 323 323 324 324 324 325 325 325 325 324 325 326 327 326 325 325 324 324 324 324 326 326 327 326 324 323 325 326 325 325 326 324 323 321 317 314 313 312 313 315 315 314 312 311 311 309 308 310 309 308 308 308 308 308 307 306 305 305 304 305 306 307 308 308 308 308 308 309 310 311 312 312 312 312 312 312 313 313 313
327 326 325 324 324 324 323 322 322 323 324 325 325 325 324 324 325 326 326 325 326 325 324 323 324 324 325 326 326 325 324 324 325 324 324 325 325 324 324 322 318 314 313 312 312 313 314 313 312 311 311 310 309 309 309 309 309 308 309 308 308 307 306 306 305 305 306 307 308 309 309 309 309 309 310 311 312 312 312 313 313 313 313 313 313
326 325 325 323 323 323 324 323 320 321 323 325 325 325 325 324 325 326 326 326 326 326 324 322 323 324 325 325 325 325 324 324 324 324 324 324 325 325 323 320 317 313 312 312 312 312 313 312 311 311 310 310 310 309 309 309 309 309 309 309 309 308 308 308 307 306 306 307 307 308 309 310 310 310 311 312 312 312 313 313 313 312 312 312 312
325 324 323 322 322 323 324 322 320 319 321 323 324 325 325 324 324 325 325 325 326 326 325 323 322 323 323 323 324 324 324 324 324 324 324 324 324 325 323 320 318 313 312 314 313 312 312 311 311 311 310 310 311 310 309 308 309 309 309 309 309 309 309 309 309 308 308 308 307 308 309 310 311 312 312 312 312 312 313 312 313 312 312 312 312
324 323 322 322 323 323 322 321 319 318 319 320 320 322 323 324 324 324 323 324 325 325 324 323 323 323 322 323 324 324 323 323 323 324 324 324 324 324 323 323 322 317 316 319 318 314 312 311 311 311 310 310 311 310 309 308 308 309 309 310 311 311 311 310 310 310 309 310 309 309 310 311 312 312 312 312 312 312 312 312 312 312 312 312 312
319 320 321 321 322 323 322 321 320 319 319 319 318 319 321 323 324 323 323 324 324 324 323 324 324 323 322 322 322 322 322 323 323 324 323 323 324 324 324 324 323 320 319 320 319 316 312 311 312 311 310 311 311 311 310 309 309 309 310 312 312 312 312 312 311 310 311 311 311 310 311 312 312 312 312 312 312 312 312 313 313 313 313 313 313
317 319 321 322 323 324 323 322 320 318 319 319 319 319 322 323 323 323 323 323 324 324 323 323 323 323 323 322 321 322 322 322 323 323 323 323 324 324 324 323 322 321 319 317 317 316 312 312 313 312 311 311 311 311 310 311 311 311 311 312 312 312 313 312 312 312 311 312 312 311 311 312 312 313 313 313 313 313 313 313 313 313 313 313 313
317 319 322 323 323 324 324 323 321 319 319 318 318 319 323 325 324 324 323 323 324 324 323 323 323 323 322 322 321 321 322 322 323 323 323 324 324 324 324 323 321 320 318 316 315 314 312 313 314 313 312 312 311 311 311 311 312 312 312 312 312 313 313 313 313 313 312 313 312 312 312 312 313 313 313 313 313 313 313 313 313 313 314 314 314
318 320 323 323 323 323 324 324 323 321 320 320 319 319 322 324 324 324 323 323 323 323 323 323 323 323 323 323 322 321 322 323 322 323 324 324 324 324 323 321 320 320 319 317 314 313 313 314 314 313 313 312 311 311 311 311 312 312 312 312 312 313 313 313 313 313 313 313 313 313 313 313 313 313 313 313 313 313 313 313 313 313 314 314 314
320 321 322 322 322 322 322 323 323 322 322 322 322 321 321 322 322 323 323 323 323 322 322 322 323 324 325 325 324 323 323 323 323 323 324 324 324 324 322 320 320 320 319 317 315 314 314 314 314 314 314 313 312 312 311 311 311 312 313 313 313 313 313 313 314 313 314 313 313 314 314 313 313 313 313 313 313 313 313 313 313 313 314 314 314
320 321 321 321 321 321 320 322 323 323 324 323 323 322 322 322 322 322 322 322 322 322 322 322 323 323 324 324 325 325 324 324 324 324 324 324 324 323 322 321 320 319 317 315 315 315 314 314 314 315 315 314 313 313 312 312 313 313 313 313 314 314 314 314 314 314 314 314 314 314 314 314 314 314 313 313 313 313 313 313 313 313 314 314 315
319 321 321 320 321 321 320 322 323 323 323 323 323 322 322 323 322 322 322 322 322 322 322 322 322 322 322 322 324 326 325 325 324 324 324 323 323 322 321 321 319 318 316 315 315 316 315 315 315 315 316 316 315 314 314 314 314 314 313 313 314 315 314 314 315 315 315 315 315 315 315 315 315 314 314 314 314 314 314 314 314 314 314 315 315
320 321 321 320 321 322 321 321 322 322 322 322 322 322 322 322 322 321 321 321 321 322 322 322 321 321 321 321 323 325 326 325 325 324 324 324 323 321 320 320 319 317 316 315 316 316 316 315 316 317 317 316 316 315 315 315 314 313 313 313 314 314 314 314 314 315 316 315 315 315 316 315 315 315 315 315 315 315 315 315 315 314 315 315 315
321 321 321 320 320 321 321 322 322 321 320 320 321 322 322 322 322 321 321 321 321 322 322 321 321 320 320 320 321 323 323 323 323 323 324 324 323 322 321 320 319 318 317 317 317 317 317 317 317 318 318 317 317 317 317 316 316 316 316 316 316 316 315 315 315 316 316 316 316 316 316 316 316 315 316 315 315 315 315 315 315 315 315 315 315
320 320 320 320 320 320 321 321 321 321 320 319 320 321 322 322 321 321 321 321 321 321 321 320 320 320 320 320 320 320 321 321 321 321 322 323 323 322 322 321 320 319 319 318 318 318 318 318 318 318 318 318 318 318 318 318 318 318 318 318 317 317 317 317 317 317 317 317 317 317 317 317 317 316 316 316 316 316 315 315 315 316 316 316 316
319 320 320 320 320 320 319 319 319 320 320 319 319 319 320 320 321 321 321 321 320 320 320 320 320 319 319 319 320 320 320 320 320 320 320 321 321 321 321 321 321 320 320 319 319 319 319 318 319 318 318 318 318 318 318 318 318 318 317 317 318 317 317 317 317 317 317 316 316 315 316 316 316 316 317 317 317 317 317 317 317 317 317 317 316
319 320 320 320 320 319 319 319 319 319 319 319 319 319 319 319 319 320 321 320 320 319 319 319 320 319 319 319 319 320 319 319 320 319 319 319 319 319 318 319 320 320 320 320 319 319 319 319 319 319 318 318 318 318 317 317 317 317 317 316 316 316 316 315 315 315 314 314 314 314 314 314 314 314 315 315 315 316 317 317 318 317 317 317 317
319 320 320 320 320 319 319 318 317 316 317 318 318 319 319 319 319 320 320 320 319 319 319 319 319 319 319 319 319 319 318 318 318 318 318 318 318 318 317 317 318 318 319 319 319 319 318 318 318 318 318 317 317 317 317 316 316 316 316 316 316 315 315 315 314 313 313 313 314 315 316 316 315 315 315 314 314 315 316 316 317 317 317 317 317
319 319 320 319 319 319 319 317 313 311 314 317 317 317 318 319 319 319 319 319 319 319 319 319 319 319 318 318 318 318 317 317 317 316 316 317 317 318 318 317 317 317 317 317 317 317 317 317 317 316 316 316 316 316 316 316 316 315 315 315 315 315 316 316 315 315 315 315 315 314 314 313 313 313 313 313 313 314 314 314 315 315 316 316 315
318 318 318 318 318 317 316 314 309 308 311 314 315 315 316 317 318 318 318 319 319 320 319 319 319 319 318 318 318 318 318 318 317 317 317 316 317 317 317 317 317 317 316 315 315 315 315 315 315 315 315 316 316 316 316 316 317 317 317 317 317 317 318 317 316 314 313 312 311 310 309 308 309 310 312 314 314 313 313 313 314 315 315 314 313
317 317 317 317 316 314 312 311 309 309 310 311 312 312 313 315 316 317 318 318 319 320 320 320 320 320 319 319 319 319 319 319 319 319 318 317 317 317 317 317 317 316 315 315 315 314 314 314 314 314 315 315 314 314 314 314 315 315 315 315 314 313 312 310 307 306 305 305 305 306 306 306 308 310 312 313 313 313 313 313 314 313 313 313 312
Wind_Speed
15 14 12 11 10 9 9 9 10 13 18 19 20 18 17 17 17 18 17 14 12 11 11 10 10 9 7 6 6 6 7 5 4 2 1 2 2 2 2 2 2 2 3 4 6 7 9 10 11 11 11 11 11 11 11 12 12 12 12 12 12 12 12 12 12 12 12 11 11 11 11 11 11 11 11 12 12 12 12 12 12 13 14 14 14
15 15 14 12 11 10 10 11 12 13 17 19 20 19 17 16 16 16 15 13 11 10 9 7 9 11 10 8 8 8 8 7 6 4 2 3 2 2 2 3 4 4 5 6 7 8 9 10 11 11 11 10 10 10 10 11 11 11 11 12 12 12 12 12 12 12 12 11 11 11 11 11 11 11 11 12 12 12 12 13 14 14 15 15 15
15 15 15 14 12 11 11 13 14 15 17 17 18 19 17 15 14 14 13 14 13 10 8 7 8 11 12 11 10 10 10 9 7 4 2 2 1 2 3 5 6 7 7 7 8 9 9 9 9 8 8 8 8 8 8 8 9 10 10 10 10 10 10 10 10 11 11 11 10 10 10 10 10 11 11 12 12 12 13 13 14 15 15 16 16
16 16 16 15 14 13 13 14 15 15 17 17 17 17 17 16 15 14 12 14 13 10 9 8 9 11 13 13 12 10 10 10 8 5 2 0 1 3 5 7 8 8 8 8 9 10 9 7 6 5 4 4 5 6 6 6 7 7 7 7 7 8 8 9 9 9 9 10 10 10 10 10 10 11 11 12 12 12 13 13 14 14 15 15 16
16 16 17 16 15 15 15 15 16 15 15 15 15 15 16 16 17 15 13 12 11 10 10 11 10 11 13 13 13 11 9 10 9 5 3 2 2 4 6 8 9 8 8 8 8 9 8 6 5 4 3 3 3 3 3 4 5 6 6 6 5 6 6 7 7 8 8 9 9 9 9 10 10 11 11 11 11 12 12 12 13 14 14 14 15
16 17 18 18 17 17 16 15 16 16 15 14 14 13 15 17 17 14 12 12 11 10 10 12 12 11 12 12 12 11 10 11 9 6 3 3 3 5 6 8 8 7 6 6 6 7 7 6 5 4 4 3 3 2 2 2 2 4 5 5 4 4 5 5 6 6 7 8 9 9 9 10 10 10 11 11 11 11 11 12 12 13 13 13 14
17 18 19 19 19 18 17 16 15 15 16 16 15 14 15 17 17 15 14 13 12 12 10 11 12 12 13 12 11 11 10 11 9 6 4 3 4 5 6 7 7 6 6 6 6 6 6 6 6 5 4 3 3 2 2 2 2 2 4 5 4 4 4 5 5 6 6 7 8 9 9 10 10 10 10 10 10 11 11 11 11 12 12 12 13
19 20 21 21 20 18 18 16 14 14 16 17 16 16 17 17 16 15 15 14 13 13 12 11 11 12 13 13 11 11 11 11 9 7 5 5 5 6 7 7 7 6 6 6 6 6 6 5 5 4 4 4 3 3 2 3 3 2 2 3 3 4 4 4 5 6 6 6 7 7 8 9 10 10 9 9 9 9 9 10 10 10 10 11 11
21 22 24 24 22 20 18 16 16 16 15 16 16 17 18 17 17 15 14 15 14 14 12 11 11 11 14 14 12 12 11 11 10 9 7 6 6 6 7 6 6 6 6 6 6 6 5 4 4 4 4 4 4 4 3 3 3 3 2 1 1 2 3 3 3 4 5 6 6 6 6 6 8 8 8 7 7 7 7 7 8 8 9 9 9
24 26 25 24 21 19 17 16 17 16 14 15 16 17 19 19 18 15 14 14 14 13 12 12 12 12 14 14 13 12 12 11 10 10 8 7 7 7 7 6 5 6 7 7 7 6 5 4 5 5 4 4 5 5 5 4 4 3 3 2 2 1 1 1 2 3 3 4 5 5 5 4 5 5 6 6 5 4 4 5 6 6 7 7 8
25 26 25 23 20 17 16 16 17 15 13 15 15 17 18 18 18 15 14 13 12 12 11 11 12 13 14 14 14 14 12 11 10 10 9 8 8 8 6 5 6 7 7 7 7 6 5 5 5 5 4 5 6 6 5 5 5 4 4 3 3 2 2 2 2 2 3 3 3 4 5 4 4 4 4 4 4 4 4 3 4 4 5 6 7
23 22 21 19 15 14 16 16 16 14 13 14 14 16 17 17 16 15 14 14 12 11 11 11 13 14 15 15 15 14 13 11 10 10 9 9 9 9 7 7 8 8 8 8 7 6 6 5 5 6 5 5 6 6 6 6 7 6 6 5 5 4 3 3 3 3 3 4 3 4 4 3 3 3 3 3 4 4 3 3 4 4 6 7 8
21 18 16 14 12 14 16 16 16 15 14 15 14 15 16 15 14 13 13 13 13 13 12 13 15 16 16 16 14 13 14 12 11 12 11 10 10 9 9 9 9 9 9 9 8 7 6 5 6 6 6 6 7 7 7 8 9 9 8 7 6 5 4 4 4 4 5 4 4 4 4 3 3 4 4 5 4 4 5 5 5 7 8 10 10
21 17 15 15 15 16 16 16 16 15 14 15 15 15 15 15 14 13 13 13 13 14 15 15 18 19 19 17 15 13 13 12 11 11 10 9 9 10 10 11 10 10 9 10 9 7 6 6 7 7 6 6 7 7 8 9 10 10 9 9 8 7 7 7 6 6 6 6 5 5 5 5 6 7 7 7 7 7 8 8 8 8 8 9 10
21 16 16 17 16 16 16 15 15 14 14 16 16 15 15 15 15 14 14 14 13 14 16 17 18 20 20 18 17 15 13 12 12 11 10 10 10 11 12 12 12 11 10 10 9 7 8 7 7 7 6 6 6 7 7 8 8 8 8 9 9 8 8 8 8 8 8 8 8 8 8 7 7 7 7 7 8 8 8 9 9 10 9 8 8
19 17 17 18 16 15 15 14 13 13 14 16 16 16 16 16 16 15 15 16 17 17 18 19 18 19 20 18 17 16 15 15 15 13 12 12 11 11 12 12 12 11 10 9 8 6 7 7 6 6 6 6 6 6 6 6 6 6 7 8 7 8 9 10 10 10 10 10 9 9 8 8 7 7 7 7 8 8 9 9 11 12 10 8 6
19 18 19 19 17 16 15 14 14 14 15 15 15 15 15 16 16 15 15 16 17 19 21 21 19 19 18 16 14 15 17 19 18 15 14 14 13 11 11 13 13 12 11 9 7 5 5 6 6 5 5 6 5 5 4 4 4 5 6 7 6 7 8 10 10 10 10 10 9 9 8 8 7 7 7 8 8 9 10 10 10 10 9 7 5
19 18 19 19 17 16 15 15 16 16 16 16 15 16 16 15 15 15 15 15 16 18 22 22 21 20 19 16 14 14 17 22 20 16 15 15 14 13 13 13 13 13 11 7 5 3 4 6 5 5 6 5 4 3 3 3 4 4 6 7 7 7 7 8 9 10 9 9 9 9 8 8 8 8 8 9 9 10 10 10 10 9 8 7 7
19 19 19 18 17 16 15 16 17 18 17 16 16 17 16 15 15 15 15 16 16 18 21 22 22 22 20 18 16 13 15 21 23 20 18 16 15 16 16 14 13 12 9 6 3 2 5 6 5 5 5 4 3 2 2 3 4 5 6 8 8 7 7 8 9 9 9 9 9 9 9 8 8 9 9 9 9 9 9 9 10 9 9 8 8
20 19 18 17 16 16 15 17 18 19 18 16 17 16 15 16 16 16 17 17 18 18 19 21 22 23 22 20 17 13 13 19 21 20 21 19 18 18 18 16 13 11 9 7 3 3 6 6 5 5 4 3 3 3 3 4 4 6 7 8 8 7 7 7 8 8 9 9 9 9 9 9 9 9 9 9 9 9 9 9 9 9 9 9 8
21 19 17 15 15 15 16 17 18 18 17 17 17 16 16 16 16 17 18 19 19 19 18 19 21 21 22 21 19 13 12 18 19 18 20 22 22 22 21 19 16 12 10 8 5 5 7 7 6 5 3 3 4 4 4 4 5 6 7 7 7 7 7 7 7 8 8 9 9 9 9 9 9 9 9 9 9 9 9 9 9 9 9 9 8
22 19 17 16 16 17 17 17 16 16 17 17 18 18 17 16 16 16 18 18 19 20 18 17 19 21 21 21 20 17 16 21 22 19 21 23 24 25 24 21 19 16 13 10 7 7 7 5 5 4 3 1 3 4 5 5 6 5 6 6 7 7 7 7 7 8 8 9 10 10 10 9 9 9 9 9 9 9 9 9 9 9 9 9 9
22 20 18 17 17 18 17 16 16 17 17 17 17 18 17 16 16 16 17 18 19 20 19 18 19 21 21 20 19 17 17 22 23 21 23 23 23 26 24 21 20 18 15 11 8 7 6 5 3 3 4 1 3 5 5 5 5 5 5 6 7 7 7 7 8 9 9 9 9 9 9 9 9 9 9 9 9 8 8 8 9 9 9 9 9
22 20 18 18 18 17 16 17 18 18 18 17 17 17 17 16 16 17 18 18 18 19 21 20 20 21 21 19 17 15 16 19 21 21 22 20 20 24 23 21 20 18 15 12 9 7 5 5 3 2 4 2 2 4 5 6 5 4 5 6 7 7 7 8 9 9 9 9 9 9 9 9 8 8 8 8 8 7 7 7 8 8 8 8 8
22 20 19 18 17 16 16 17 17 17 17 17 16 17 17 16 17 17 18 18 18 19 20 20 20 21 20 19 17 15 15 17 18 19 20 19 19 21 22 22 22 19 16 13 12 10 8 6 4 0 3 2 1 4 5 5 4 4 6 7 7 7 8 9 9 10 10 9 9 8 8 8 7 7 7 6 6 6 6 7 7 7 7 8 8
21 20 19 18 16 15 15 15 14 14 15 15 16 16 17 18 17 17 17 17 16 17 18 19 19 20 21 20 17 15 15 17 17 18 19 20 20 20 23 24 21 18 17 15 14 13 12 10 7 3 1 2 1 4 5 5 4 5 7 7 7 9 9 10 10 10 10 9 8 7 7 6 6 5 5 5 5 5 5 6 6 7 7 7 7
19 19 19 18 17 16 15 14 13 13 14 15 16 17 18 18 17 16 17 17 16 17 17 18 19 20 21 21 18 15 15 16 16 17 18 18 18 20 23 25 22 18 17 16 14 13 11 11 10 6 2 1 2 4 6 4 5 6 7 7 8 9 10 10 10 9 9 8 7 7 6 5 5 4 4 4 4 4 5 5 6 6 6 7 7
18 18 18 18 17 17 16 15 14 14 15 16 17 17 17 18 17 17 18 18 17 17 17 18 19 20 22 22 20 17 16 17 17 16 17 16 17 19 21 24 24 22 20 17 15 15 13 10 9 8 5 3 3 5 6 5 6 7 7 8 9 9 10 10 9 9 8 7 6 6 5 4 3 3 3 3 4 4 4 5 5 6 6 7 8
19 18 17 17 17 17 16 16 16 15 16 16 16 16 16 17 16 16 17 17 18 18 17 18 18 19 21 22 21 18 17 18 18 17 16 16 17 19 20 21 21 22 23 21 18 18 17 13 10 8 7 5 4 5 6 6 6 7 7 8 9 9 9 9 9 8 7 6 5 4 4 3 3 3 3 3 4 4 5 5 6 6 7 7 8
20 19 19 18 17 16 16 16 16 16 15 15 14 15 15 15 14 14 15 16 17 17 17 17 18 18 20 21 21 20 18 18 19 19 18 17 18 19 19 18 17 16 16 20 21 19 17 14 12 10 7 6 6 5 6 7 7 8 8 8 9 8 8 8 8 7 6 5 5 3 3 2 2 2 2 3 3 4 4 5 5 6 7 7 7
21 21 20 19 18 17 16 16 15 15 15 14 14 14 14 14 13 13 14 15 16 17 16 17 17 18 20 21 22 22 19 17 19 21 19 19 20 20 19 18 17 14 12 14 17 16 16 14 12 10 8 6 6 6 7 8 9 9 9 9 9 9 8 8 7 7 6 5 4 3 3 2 2 2 1 1 1 2 4 4 5 6 6 6 7
21 21 21 21 20 19 17 16 15 14 14 15 15 14 14 15 14 14 15 16 16 16 16 16 17 19 20 21 21 22 21 18 19 22 21 21 23 21 18 18 19 16 14 14 11 9 12 14 11 10 9 7 6 7 8 10 11 10 10 9 10 10 9 9 8 7 7 6 5 4 3 3 3 3 2 1 2 3 4 5 6 7 7 8 8
21 21 21 21 21 20 17 16 16 15 15 15 15 14 14 15 15 15 16 16 16 16 17 17 17 19 19 19 19 20 20 19 19 21 21 22 25 24 19 19 21 18 17 17 13 10 12 14 13 11 10 8 7 8 10 12 13 12 11 10 10 10 10 10 10 9 9 8 7 6 5 4 4 4 3 3 3 4 5 6 7 9 10 10 11
20 21 21 21 21 19 16 15 16 16 15 15 15 14 14 15 15 15 16 16 15 16 18 18 17 19 19 19 18 18 19 19 19 21 21 21 25 26 22 21 21 20 17 16 17 16 15 14 14 15 13 11 10 9 10 12 13 12 12 10 9 9 9 10 10 10 10 9 9 8 7 6 5 4 4 4 4 5 7 8 9 11 12 12 13
21 21 21 21 19 17 16 16 16 16 16 15 15 14 14 14 14 14 14 15 15 16 18 18 17 18 19 20 19 18 18 19 19 20 21 21 24 27 26 22 20 20 17 15 16 19 19 16 14 16 17 15 12 9 8 9 12 12 11 9 7 7 8 9 10 10 10 9 10 10 9 7 6 5 5 6 6 7 8 10 11 13 13 14 15
21 22 21 19 18 17 17 17 17 16 16 16 15 14 13 13 13 14 14 14 15 15 15 16 16 16 18 19 19 18 17 17 19 20 21 22 23 26 27 23 21 20 17 15 15 18 21 19 15 15 17 16 13 10 8 9 12 13 11 8 7 7 7 8 10 11 10 9 10 11 11 10 9 9 9 9 9 9 10 11 13 14 15 16 16
21 22 22 19 18 18 17 16 15 14 15 16 15 14 13 12 13 13 14 15 15 15 14 15 15 15 17 17 16 17 17 16 19 20 21 22 23 25 25 23 22 20 16 14 14 18 21 19 14 14 16 17 15 12 11 11 12 13 13 12 11 10 10 10 11 11 12 11 11 12 14 14 13 13 13 12 12 12 12 13 14 15 16 17 17
21 23 22 20 19 18 16 16 13 12 14 16 15 14 13 13 13 13 14 14 14 15 14 14 14 14 15 15 15 16 15 16 19 20 19 21 22 21 21 22 22 20 16 14 16 21 21 16 13 13 14 16 16 14 13 13 13 13 13 13 14 14 14 14 13 13 14 15 14 14 16 16 16 16 16 16 16 16 16 16 16 17 17 17 18
23 24 23 21 20 18 17 17 15 14 16 17 16 16 14 13 14 14 14 15 15 15 14 12 12 12 13 13 15 15 13 15 19 19 18 20 19 19 20 22 21 17 16 16 18 23 21 15 13 13 12 14 17 16 15 15 16 17 16 16 16 16 17 17 17 16 15 17 17 17 18 18 19 20 20 20 21 20 20 19 19 19 18 19 19
25 26 24 22 21 19 19 18 18 19 20 19 17 17 15 14 14 14 14 15 16 16 14 12 11 10 11 11 12 12 13 16 19 18 18 18 18 19 21 22 20 16 16 17 19 23 22 17 15 13 12 14 16 17 18 18 19 19 18 19 19 17 17 18 18 18 18 19 20 20 20 21 22 22 23 23 23 23 23 23 22 22 21 20 21
27 26 24 22 22 20 20 21 22 22 21 19 17 17 16 14 13 14 14 16 17 17 15 13 12 11 10 10 10 11 13 17 19 18 16 14 13 17 20 20 18 16 16 18 19 21 22 19 16 14 14 16 17 19 20 21 20 18 17 19 19 17 17 19 19 18 19 21 21 23 23 23 24 25 26 26 26 26 26 26 25 24 23 22 22
28 26 23 23 23 21 22 24 24 23 22 20 17 17 17 16 14 14 14 15 17 17 16 15 15 14 12 11 11 12 15 19 20 19 17 11 9 12 15 15 15 14 16 19 19 19 21 20 16 14 15 16 17 19 20 20 20 19 19 21 22 20 20 22 21 17 18 20 22 23 23 22 23 24 25 26 25 25 26 27 26 26 24 24 24
28 26 24 23 24 22 22 24 24 22 22 21 19 18 18 18 16 14 14 15 16 17 17 18 17 15 13 12 13 14 17 20 21 21 19 14 10 10 10 10 9 10 14 18 18 18 20 20 17 14 14 14 16 18 19 20 21 22 23 24 24 23 24 26 24 20 19 21 23 24 23 22 23 24 24 25 25 25 26 27 28 28 27 27 27
29 27 25 24 23 23 23 24 24 23 22 21 21 20 20 21 19 17 16 17 18 19 19 18 17 15 14 13 13 13 13 13 15 18 18 16 13 11 11 11 10 11 14 16 17 17 17 17 15 13 12 12 14 14 14 15 16 17 18 18 19 20 21 24 25 23 20 20 21 24 23 21 23 26 27 27 28 28 29 30 29 29 30 30 31
29 28 27 25 24 24 24 24 24 23 21 21 22 22 22 22 20 19 18 18 19 20 19 17 16 15 14 13 14 13 11 10 10 12 14 15 15 14 13 13 13 13 13 14 15 16 15 15 15 13 13 12 13 13 13 13 14 14 14 15 15 16 17 19 20 20 19 20 21 23 24 23 24 27 29 30 31 33 34 34 33 32 32 32 32
30 28 27 27 26 25 24 23 22 23 22 21 21 22 22 21 21 21 21 19 19 19 18 17 16 15 15 14 14 14 12 11 10 10 11 14 16 16 15 14 14 15 15 15 14 15 15 15 15 15 15 15 15 15 15 16 17 18 18 19 19 21 21 22 23 23 23 24 25 27 30 29 29 31 33 33 33 34 35 34 34 33 33 34 35
30 29 28 27 27 25 23 21 20 21 21 21 21 21 20 20 20 22 23 21 20 20 19 17 17 17 17 16 15 15 14 13 12 11 11 12 13 14 13 13 13 14 15 16 16 16 16 16 16 16 16 17 18 18 19 19 20 21 23 24 25 26 27 28 28 29 28 29 28 30 33 33 31 33 37 35 34 35 35 33 33 33 33 35 37
30 29 28 27 26 24 21 19 18 18 20 22 22 21 20 20 20 22 22 21 19 19 18 19 19 19 19 18 17 16 15 14 14 13 13 12 11 11 11 11 12 12 13 15 16 17 17 18 18 19 19 20 20 21 22 23 23 24 24 25 25 27 29 31 32 32 31 31 30 31 34 36 34 35 38 37 36 37 36 34 34 35 35 36 37
31 30 28 26 24 22 21 18 15 16 20 23 23 21 20 21 21 21 20 19 18 18 19 21 22 21 20 19 18 17 16 15 15 15 14 13 12 12 11 11 12 12 12 12 13 14 15 15 16 17 18 19 20 20 22 23 24 26 26 27 27 29 31 32 34 35 35 34 33 32 35 38 36 35 36 36 35 36 36 35 35 35 35 37 38
31 30 28 27 24 22 20 17 15 16 19 21 22 21 20 20 21 21 20 19 19 20 21 23 23 21 20 19 17 17 16 15 15 15 15 14 14 14 14 14 14 14 14 14 14 15 15 16 17 18 19 20 21 22 23 24 26 27 28 29 30 32 33 34 35 37 38 36 32 30 34 37 35 32 32 32 33 35 35 34 33 32 33 34 34
31 29 28 26 24 22 20 18 17 17 18 19 19 19 19 19 20 20 20 20 20 21 22 23 22 20 19 18 17 17 16 16 16 16 15 16 16 16 16 16 16 16 16 16 17 18 18 19 19 20 21 22 24 24 26 27 28 29 30 31 32 33 34 34 34 35 36 35 29 27 30 34 33 31 29 29 33 36 35 33 33 32 31 31 31
Wind_Direction
186 185 185 181 179 181 182 175 170 173 175 179 182 179 175 173 173 171 167 164 168 174 175 176 183 195 204 205 211 228 242 258 277 284 310 323 326 344 12 29 49 99 110 118 124 119 113 106 98 93 88 84 83 82 81 80 78 76 76 76 76 77 78 79 79 80 80 80 80 80 80 80 79 78 77 74 74 74 73 69 67 67 65 63 62
191 188 187 184 184 186 185 171 161 164 171 178 182 180 176 178 181 176 172 168 168 177 184 190 194 203 210 213 219 226 236 247 256 260 275 297 315 353 37 67 87 107 114 123 128 123 116 107 99 93 88 84 79 76 77 78 78 76 75 75 75 76 78 80 81 82 81 80 81 82 82 81 80 79 78 77 75 74 72 69 67 68 68 66 65
196 193 190 186 188 187 181 168 157 156 160 169 178 178 176 181 183 174 174 174 174 187 200 203 204 211 218 222 229 241 249 246 243 246 252 284 335 45 74 95 101 109 118 127 129 121 109 99 91 81 74 77 76 72 71 73 74 73 72 72 74 76 78 80 81 82 82 82 81 81 82 81 80 80 79 79 77 75 72 71 69 68 68 68 65
198 196 193 189 189 185 178 165 153 154 155 158 163 168 172 177 178 175 182 183 184 201 214 214 211 214 220 225 233 244 249 240 238 234 200 160 60 85 102 111 108 109 116 121 123 118 108 99 90 80 71 70 73 70 67 68 67 67 68 69 71 75 78 80 79 80 80 82 82 82 82 82 83 82 82 80 78 76 74 72 70 68 66 67 65
200 196 195 191 188 184 177 160 150 154 156 157 156 158 166 175 181 184 188 189 196 213 224 226 219 214 218 222 229 234 231 229 233 224 171 130 104 115 118 115 111 111 112 112 114 115 115 114 108 103 100 88 87 83 76 74 62 58 63 68 72 77 79 80 79 79 80 80 81 82 83 84 84 83 81 79 77 75 73 71 69 66 64 64 64
205 198 195 192 189 185 177 162 155 159 163 168 167 165 170 178 188 192 192 195 204 219 232 232 222 214 212 212 220 223 216 218 222 212 177 144 130 129 123 118 115 115 116 113 113 117 120 123 118 110 106 102 106 109 111 112 70 54 60 70 76 77 79 77 79 81 81 81 80 82 84 83 83 82 80 76 73 71 69 68 66 65 62 61 61
207 199 196 192 190 185 174 168 166 166 171 181 183 179 180 184 193 197 196 199 206 218 230 230 223 216 212 211 217 218 210 211 211 199 183 159 146 139 129 125 123 121 121 119 119 123 122 119 117 114 115 117 116 120 127 131 120 75 66 72 78 83 81 74 79 83 80 83 85 86 86 84 82 79 76 73 71 68 66 65 63 64 63 62 61
207 200 197 193 189 184 178 177 179 175 178 191 194 190 189 194 201 202 201 202 207 215 219 222 223 220 215 214 214 208 205 207 203 193 184 168 161 149 137 133 131 129 127 125 125 124 118 112 114 118 127 131 130 137 133 118 126 122 92 78 78 82 78 72 78 80 81 87 91 92 92 90 84 76 70 66 64 65 65 64 62 62 61 61 60
205 199 196 193 186 185 187 188 191 185 183 197 202 196 197 204 208 208 208 210 213 214 215 219 222 217 209 208 206 200 199 202 200 197 189 177 172 159 146 142 140 144 143 136 130 124 116 114 121 127 131 132 133 134 129 122 123 126 127 122 104 74 57 64 74 71 77 86 91 97 99 98 91 78 68 61 55 54 59 61 59 59 59 59 58
205 199 196 193 185 186 194 201 202 193 191 200 201 199 201 206 210 211 212 215 219 220 221 221 217 207 199 197 197 191 189 195 201 200 191 182 179 166 155 152 153 158 155 147 139 129 119 120 124 125 129 131 131 125 121 127 126 121 127 136 147 137 62 83 92 77 80 83 84 89 99 110 99 74 56 53 44 32 43 51 49 56 57 55 55
209 202 195 190 185 191 203 209 205 194 196 203 199 200 201 202 208 211 212 215 218 218 217 213 205 198 194 190 187 185 186 191 199 198 191 186 184 178 170 165 164 162 158 154 148 135 124 121 119 117 120 130 132 129 125 126 123 116 114 111 117 126 126 142 146 120 113 108 88 80 93 110 96 62 46 42 32 24 34 34 37 55 54 51 58
213 210 199 191 191 201 203 202 198 189 197 208 203 203 203 201 205 208 212 216 210 201 202 202 193 187 188 187 184 184 186 190 194 192 190 189 185 182 176 167 163 160 157 156 153 146 133 120 115 112 109 119 125 125 124 121 116 109 103 99 98 103 114 136 148 149 141 138 117 89 92 96 78 63 55 40 28 35 54 43 43 66 62 60 66
210 217 213 206 205 202 195 192 194 192 202 213 210 207 207 206 208 210 214 217 207 195 195 198 191 181 178 179 180 181 181 183 192 194 192 189 182 176 172 169 164 161 161 160 157 153 141 125 124 119 109 112 116 115 117 117 114 111 106 100 95 100 109 122 133 139 140 146 136 111 100 88 80 84 79 75 73 76 88 86 79 77 68 66 73
202 215 218 214 208 198 193 193 197 199 206 215 213 212 213 212 214 214 212 213 209 200 194 195 193 186 178 172 172 178 180 181 190 195 190 183 176 171 172 173 166 164 167 162 156 148 138 134 131 124 114 111 109 110 117 119 117 115 110 103 97 100 107 114 122 129 132 136 134 125 116 106 99 96 93 92 92 89 92 96 95 90 79 72 77
200 214 215 209 203 196 195 198 201 203 210 216 214 213 217 218 221 222 214 206 203 201 198 197 196 188 176 171 174 175 173 181 189 187 183 180 174 174 177 174 164 163 165 156 149 143 139 137 132 127 120 109 105 110 119 121 119 118 113 106 102 100 103 107 111 117 121 122 123 120 114 110 106 103 100 94 89 86 86 90 96 102 99 90 91
206 216 210 203 201 197 197 200 200 203 212 217 213 214 219 220 223 225 219 205 196 196 197 200 205 197 180 172 175 175 173 182 185 180 180 178 177 183 180 173 167 163 161 151 144 143 143 143 141 135 121 108 108 114 122 124 120 118 113 108 106 106 109 111 110 112 116 119 120 119 114 113 110 105 100 92 89 87 84 88 98 105 112 117 114
211 213 206 202 203 202 200 199 197 204 213 215 212 215 220 222 224 224 219 210 199 195 195 200 208 209 202 189 180 182 186 185 180 178 182 178 181 188 173 164 166 163 158 155 148 146 156 159 148 133 117 112 118 125 134 132 122 116 111 107 106 110 113 114 115 116 118 121 122 122 118 114 110 102 97 92 90 85 83 87 95 103 112 116 99
208 206 201 201 203 201 201 201 201 207 213 211 209 215 221 223 224 222 217 211 206 200 198 199 201 205 214 214 205 205 200 186 177 176 179 179 181 178 163 162 168 165 162 161 152 142 172 172 149 132 131 130 137 144 146 134 121 115 110 110 110 111 112 111 114 117 118 119 118 117 114 109 104 99 95 91 87 83 82 83 85 89 93 90 80
203 201 198 198 199 199 202 204 204 209 213 210 208 214 221 224 223 221 214 208 209 209 205 201 198 200 207 211 215 225 215 195 184 177 173 175 177 169 164 170 174 172 169 167 165 179 191 181 159 153 156 152 157 160 148 123 118 120 116 115 113 111 113 114 117 119 118 118 116 114 110 108 104 99 95 90 87 85 82 80 79 79 79 76 72
203 203 201 199 200 202 205 206 206 211 213 209 210 214 218 222 221 217 211 208 210 213 212 208 204 202 202 205 211 220 216 204 194 183 173 168 167 168 168 173 176 178 174 168 180 201 180 167 153 158 171 173 164 149 137 121 120 126 121 117 115 114 115 117 120 120 120 120 117 115 112 109 106 100 96 91 87 85 82 79 76 73 70 66 60
202 202 201 199 202 208 210 211 210 211 211 209 210 214 216 219 219 213 209 209 211 213 216 217 212 205 202 203 206 206 202 200 196 188 178 167 164 170 171 173 178 180 177 172 174 172 157 140 130 128 137 173 167 142 134 130 132 132 124 119 119 120 122 123 124 123 124 123 119 118 115 110 106 100 97 93 88 85 82 79 76 72 68 63 57
199 196 194 195 203 211 213 213 212 210 209 208 208 213 216 215 214 214 210 209 210 211 215 218 213 207 205 203 202 199 194 193 193 189 182 172 169 172 173 176 179 177 176 179 175 169 155 132 123 98 64 91 165 149 144 141 141 138 129 126 126 128 129 129 131 130 129 127 123 120 116 111 106 102 97 93 89 85 81 78 74 69 64 58 53
197 194 192 194 201 208 210 211 210 209 209 209 207 211 214 211 208 210 209 208 209 210 210 212 210 206 206 205 203 202 198 193 191 189 185 180 174 172 174 181 180 172 171 178 185 184 165 136 127 65 37 29 174 157 151 150 148 147 140 136 136 137 138 136 137 136 132 129 125 120 116 111 106 100 94 88 83 79 76 72 67 64 60 56 52
197 196 193 194 198 202 205 205 205 207 210 212 210 207 209 208 206 205 204 205 207 207 205 204 207 206 204 203 204 208 209 199 192 190 192 193 185 174 173 179 176 168 167 177 190 199 181 149 138 31 16 15 177 161 154 154 155 159 154 148 147 147 145 143 139 137 133 129 124 120 115 110 103 96 91 86 81 76 74 71 70 69 67 64 61
198 196 192 194 196 198 200 201 202 203 206 210 209 203 203 205 204 203 203 203 203 206 204 201 202 205 203 202 202 203 208 205 197 194 195 198 194 180 171 173 172 165 166 182 194 195 191 179 168 333 354 1 178 169 162 161 165 170 166 161 160 158 153 147 142 138 133 127 122 116 109 104 99 95 91 86 82 77 74 72 71 69 68 65 62
193 191 190 190 191 194 198 199 197 197 199 203 203 200 201 203 202 201 201 203 203 204 203 200 201 203 203 202 199 196 202 206 204 199 197 197 198 188 173 170 172 169 170 186 198 195 191 187 189 219 330 12 269 190 172 170 179 178 175 174 172 166 159 152 147 142 135 127 119 113 106 101 97 93 89 85 80 76 71 68 66 64 62 59 56
185 185 189 188 187 191 195 195 192 192 196 199 199 199 200 200 201 198 196 197 202 203 200 199 202 203 204 203 202 199 200 206 206 203 202 203 204 199 184 173 172 172 177 187 197 200 198 190 194 211 216 2 291 209 186 181 189 189 184 185 182 172 164 158 152 145 136 128 120 113 105 99 93 87 82 80 75 72 68 64 61 58 54 51 48
181 185 190 187 186 191 190 190 190 188 193 198 198 199 201 200 199 196 193 194 199 201 197 199 204 205 203 203 206 205 202 205 207 204 204 207 207 207 200 188 178 172 174 181 192 199 202 202 204 206 210 252 267 207 196 196 196 199 195 189 187 179 170 164 157 149 139 130 120 112 105 96 90 85 81 78 74 69 64 57 53 49 45 43 40
182 185 188 186 187 190 186 185 188 186 188 194 195 196 199 202 201 197 195 196 198 198 197 200 203 203 203 204 206 206 202 202 204 203 203 204 206 206 206 204 195 182 176 179 193 201 199 206 218 211 204 224 233 205 204 209 204 206 204 193 190 187 180 173 166 156 144 134 125 118 112 107 102 96 89 81 74 66 58 51 45 41 38 35 33
186 183 184 188 189 190 184 181 186 186 186 190 192 195 197 199 200 198 197 196 195 196 199 202 201 201 204 205 205 205 204 202 201 203 205 205 206 202 198 201 203 200 192 187 194 204 203 206 217 220 215 210 208 208 215 217 210 209 209 200 193 195 193 188 178 167 155 147 144 141 137 135 130 118 103 85 70 59 45 34 28 26 25 23 22
187 185 182 184 187 188 184 181 184 183 183 187 192 194 194 196 198 199 198 197 196 197 199 201 200 198 199 200 202 203 204 204 202 203 205 206 207 203 198 200 205 217 219 197 193 201 206 210 213 217 225 218 205 217 225 221 215 212 212 206 200 202 204 203 198 186 176 172 169 173 179 185 184 173 151 86 37 23 14 5 0 360 359 358 358
187 187 181 179 181 184 182 182 184 182 180 184 191 193 192 193 197 200 201 199 198 198 198 199 198 197 196 197 201 204 205 206 202 201 203 204 204 203 202 204 209 215 212 198 197 197 199 212 221 215 216 216 217 230 229 221 217 214 213 213 211 211 211 212 212 208 202 199 197 199 205 210 216 223 235 262 306 331 339 337 334 332 332 334 336
186 187 182 181 184 183 180 181 182 182 179 181 187 190 190 192 193 198 202 200 198 198 197 195 194 194 195 195 200 205 206 205 201 200 203 202 200 202 204 204 207 211 206 200 209 210 198 207 218 218 215 217 227 236 230 223 221 219 218 221 222 222 222 222 221 220 221 222 222 223 224 225 225 227 238 261 287 303 312 315 315 314 316 320 322
189 189 186 186 187 185 182 182 181 179 179 181 183 182 185 191 194 194 197 196 196 198 197 194 192 194 197 198 199 202 205 204 201 200 200 200 201 202 203 203 207 210 207 209 217 220 214 207 208 215 219 222 228 235 232 226 223 226 231 235 236 234 233 233 231 228 227 231 233 233 231 228 222 224 242 264 279 291 299 301 302 304 307 311 313
191 192 191 189 187 184 179 178 180 180 180 183 184 181 181 190 195 193 194 196 197 197 196 197 199 200 201 203 202 203 204 203 202 200 200 202 204 203 201 204 210 209 211 224 230 226 224 219 212 216 221 222 225 231 236 231 227 231 237 238 235 232 234 239 240 235 233 236 237 235 232 225 223 231 245 258 271 281 288 292 294 296 299 302 305
184 184 186 186 182 177 172 173 177 179 179 181 183 182 180 185 190 189 189 192 194 195 196 198 201 202 202 204 205 205 204 203 201 201 202 203 202 202 204 208 212 211 219 238 240 229 226 224 222 224 224 224 226 225 226 228 224 221 223 224 220 225 235 245 246 240 235 239 238 231 227 224 228 239 249 256 265 272 278 285 289 293 295 296 297
174 172 173 174 174 174 174 174 174 174 175 177 178 179 177 177 180 183 186 187 187 190 194 195 199 202 202 204 206 204 203 204 202 199 200 200 199 201 206 211 213 213 223 236 231 224 224 225 229 231 227 224 225 225 223 225 223 217 216 223 229 239 247 249 250 242 235 238 236 227 225 229 237 247 253 258 264 269 274 280 286 291 294 294 294
171 170 170 172 174 177 178 176 173 172 174 174 174 174 173 173 174 175 178 180 179 182 186 188 193 197 199 201 201 199 201 202 198 196 195 195 199 204 206 207 209 212 219 222 217 218 222 227 233 237 235 226 222 225 227 228 231 232 233 236 240 247 250 250 251 245 236 240 240 233 231 236 244 252 257 261 266 269 272 277 283 288 290 291 293
169 171 173 175 178 183 184 183 182 178 171 168 168 169 168 169 170 170 172 173 172 172 175 180 186 190 192 195 196 195 200 199 193 193 195 195 202 208 204 201 205 215 222 218 214 217 221 226 230 237 244 233 224 229 235 235 238 242 246 249 249 252 255 258 262 260 253 250 249 247 246 247 251 255 258 261 264 267 270 273 278 282 284 286 288
172 175 175 177 182 187 191 190 184 173 165 164 167 166 163 162 166 168 170 172 169 166 166 169 175 181 183 186 192 195 197 193 189 192 198 201 208 210 204 203 209 223 227 219 214 217 220 225 229 231 239 238 232 233 237 238 240 243 248 253 256 259 262 267 271 271 269 264 261 260 258 257 259 261 263 265 266 267 269 271 274 277 279 282 284
177 178 178 179 179 179 182 182 176 170 167 170 173 170 167 167 168 170 171 171 171 169 165 160 160 162 164 174 189 197 195 190 189 193 197 200 208 210 208 211 218 226 225 214 209 212 217 223 227 227 232 238 238 237 237 240 245 251 256 258 263 267 269 269 270 271 272 270 268 266 263 264 266 268 268 268 269 270 270 270 272 273 275 279 282
180 178 177 179 176 172 173 174 173 173 174 176 178 176 178 181 179 179 179 176 175 173 167 161 158 155 158 171 185 193 195 195 194 194 192 187 191 202 211 222 231 232 222 209 203 206 214 220 222 224 231 236 238 241 245 250 255 259 260 261 265 269 269 265 264 266 269 269 269 268 268 268 268 267 266 266 267 268 268 269 272 273 274 277 279
180 177 174 178 179 179 178 175 174 175 177 180 180 177 180 184 181 177 178 177 176 176 171 166 164 162 163 170 177 188 198 199 196 193 191 191 191 191 201 217 223 215 207 202 198 202 211 215 216 219 226 231 235 240 246 252 255 257 260 263 266 267 266 264 264 267 270 271 270 270 272 273 271 270 270 272 273 272 271 274 276 275 274 275 277
184 181 180 182 183 183 184 182 178 177 177 181 183 181 178 178 176 172 170 169 170 172 171 169 170 170 169 170 173 182 191 190 187 187 190 198 204 201 197 200 193 183 184 188 189 193 200 205 206 206 208 214 221 227 232 238 244 249 254 257 258 259 259 260 262 265 267 269 269 270 272 273 273 273 276 279 281 281 280 282 281 277 275 276 278
185 182 182 184 182 181 183 183 182 181 179 179 185 189 186 182 179 176 172 169 169 172 172 174 179 178 177 176 177 180 179 174 172 178 186 198 209 212 210 208 204 198 194 192 190 192 197 202 205 207 208 212 217 219 222 228 235 240 245 249 254 258 260 261 264 267 269 271 274 278 280 279 278 278 279 280 282 282 282 282 282 281 280 280 280
184 180 180 180 179 179 180 182 182 182 182 181 185 192 195 194 191 186 182 177 174 175 178 181 183 182 183 187 186 184 182 183 185 187 194 202 210 215 216 216 215 214 215 215 213 211 213 215 218 222 225 230 235 238 240 242 246 250 253 256 259 262 266 268 269 271 274 277 281 285 285 282 282 281 279 279 280 279 279 279 278 278 279 281 282
183 179 178 177 179 179 180 184 186 184 184 183 183 187 194 197 194 192 192 187 180 180 183 187 188 188 189 192 193 190 187 190 193 198 204 210 215 219 219 218 218 219 221 225 228 230 232 233 236 239 241 244 248 251 255 256 258 261 262 264 266 268 270 272 272 273 276 279 282 285 285 284 284 282 281 282 283 282 282 281 279 277 279 280 277
182 179 178 178 180 182 182 187 192 191 188 184 182 183 186 188 188 190 190 187 182 182 185 188 189 190 190 192 194 194 193 196 198 201 206 209 214 219 220 219 221 223 223 226 229 233 237 240 243 246 248 251 253 257 261 263 265 267 268 270 272 274 276 277 276 275 276 278 280 283 285 285 284 284 283 284 285 284 283 282 281 280 280 278 274
179 178 178 177 179 182 183 186 192 195 190 185 186 187 187 185 185 186 186 182 180 181 183 184 186 187 187 189 191 193 196 200 202 205 207 209 210 215 218 220 224 228 231 234 237 240 244 246 249 251 254 256 258 261 264 267 270 271 273 274 275 276 278 280 280 278 277 277 277 278 280 281 283 285 286 286 287 285 284 283 283 282 281 279 278
178 176 176 176 175 177 179 180 183 187 185 182 187 193 194 192 190 188 184 180 177 177 179 179 182 184 184 185 188 192 196 200 203 206 211 214 216 219 223 227 230 235 239 242 245 249 252 254 256 259 262 264 266 267 268 270 271 272 273 274 274 275 277 279 280 280 280 279 279 279 278 280 283 286 289 290 289 286 286 287 286 285 284 283 282
175 171 172 173 171 169 169 169 171 175 176 175 180 189 193 195 196 194 191 187 182 179 178 179 181 184 185 186 189 193 197 201 205 208 212 216 219 223 227 232 236 240 243 245 247 250 252 255 257 259 262 263 265 266 267 268 269 270 271 272 273 274 275 277 279 281 283 285 287 286 281 280 282 284 287 292 292 288 288 289 290 289 289 289 286